Location: Ithaca
(42.4410°N, 76.4970°W)
Time: 10:28:29
(UTC-04:00)

ISS - Visible Passes

Search period start: 01 April 2015 00:00
Search period end: 11 April 2015 00:00
Orbit: 396 x 405 km, 51.6° (Epoch: 01 April)

Date Brightness Start Highest point End Pass type
(mag) Time Alt. Az. Time Alt. Az. Time Alt. Az.
01 Apr -2.1 05:27:08 26° SSW 05:27:08 26° SSW 05:29:18 10° SSE visible
02 Apr -1.0 21:09:17 10° SSW 21:09:49 13° SSW 21:09:49 13° SSW visible
03 Apr -1.5 20:16:47 10° S 20:18:45 15° SE 20:19:58 13° ESE visible
03 Apr -0.9 21:51:36 10° WSW 21:52:38 18° WSW 21:52:38 18° WSW visible
04 Apr -3.4 20:58:03 10° SW 21:01:16 66° SE 21:02:26 35° ENE visible
05 Apr -2.6 20:04:46 10° SSW 20:07:44 33° SE 20:10:44 10° ENE visible
05 Apr -1.9 21:41:05 10° W 21:44:07 35° NNW 21:44:30 34° N visible
06 Apr -2.8 20:47:09 10° WSW 20:50:23 58° NNW 20:53:36 10° NE visible
06 Apr -0.3 22:24:52 10° WNW 22:26:14 16° NW 22:26:14 16° NW visible
07 Apr -1.1 21:30:39 10° WNW 21:33:22 23° NNW 21:35:06 16° NNE visible
08 Apr -1.6 20:36:29 10° W 20:39:28 32° NNW 20:42:28 10° NE visible
08 Apr -0.5 22:14:24 10° NW 22:16:22 16° N 22:16:22 16° N visible
09 Apr -0.7 21:20:11 10° WNW 21:22:34 18° N 21:24:54 10° NE visible
09 Apr 0.3 22:57:27 10° NW 22:57:28 10° NW 22:57:28 10° NW visible
10 Apr -1.0 20:25:53 10° WNW 20:28:32 22° NNW 20:31:11 10° NE visible
10 Apr -0.7 22:03:35 10° NW 22:05:45 16° N 22:05:53 16° N visible
